This is the latest recevied weather packets stored in our database for station/object KO4IDC-13. If no packets are shown the sender has not sent any weather packets the latest 10 day(s).
| Time | Temp. | Humidity | Pressure | Rain* | Wind** | Luminosity | Snow |
|---|---|---|---|---|---|---|---|
| 1778030000 | 11.67° C | 99% | 1009.5 hPa | 0 mm | - | 0 W/m² | - |
| 1778029697 | 11.67° C | 99% | 1009.6 hPa | 0 mm | - | 0 W/m² | - |
| 1778029395 | 11.67° C | 99% | 1009.7 hPa | 0 mm | - | 0 W/m² | - |
| 1778029092 | 11.67° C | 99% | 1009.9 hPa | 1.27 mm | - | 0 W/m² | - |
| 1778028788 | 11.67° C | 99% | 1009.6 hPa | 1.27 mm | - | 0 W/m² | - |
| 1778028484 | 11.67° C | 98% | 1009.3 hPa | 0 mm | - | 0 W/m² | - |
| 1778028182 | 11.67° C | 99% | 1009.5 hPa | 0 mm | - | 1 W/m² | - |
| 1778027878 | 11.67° C | 98% | 1009.5 hPa | 0 mm | - | 0 W/m² | - |
| 1778027575 | 11.67° C | 98% | 1009.5 hPa | 0 mm | - | 2 W/m² | - |
| 1778027271 | 11.67° C | 98% | 1009.8 hPa | 0 mm | - | 1 W/m² | - |
| 1778026967 | 11.67° C | 98% | 1009.4 hPa | 0 mm | - | 2 W/m² | - |
| 1778026663 | 11.67° C | 98% | 1009.7 hPa | 1.78 mm | - | 2 W/m² | - |
| 1778026361 | 11.67° C | 98% | 1009.6 hPa | 1.78 mm | - | 4 W/m² | - |
| 1778026057 | 12.22° C | 98% | 1009.5 hPa | 1.27 mm | - | 5 W/m² | - |
| 1778025755 | 12.22° C | 98% | 1008.7 hPa | 1.27 mm | - | 25 W/m² | - |
| 1778025452 | 11.67° C | 98% | 1009.9 hPa | 1.78 mm | - | 32 W/m² | - |
| 1778025150 | 12.22° C | 98% | 1009.9 hPa | 1.78 mm | - | 4 W/m² | - |
| 1778024846 | 12.22° C | 98% | 1009.8 hPa | 1.78 mm | - | 6 W/m² | - |
| 1778024544 | 12.22° C | 98% | 1009.8 hPa | 1.78 mm | - | 7 W/m² | - |
| 1778024240 | 12.22° C | 98% | 1009.6 hPa | 0 mm | - | 9 W/m² | - |
| 1778023938 | 12.22° C | 98% | 1009.7 hPa | 1.27 mm | - | 8 W/m² | - |
| 1778023635 | 12.78° C | 98% | 1009.9 hPa | 1.27 mm | - | 10 W/m² | - |
| 1778023333 | 12.78° C | 98% | 1009.6 hPa | 1.78 mm | - | 20 W/m² | - |
| 1778023029 | 13.33° C | 98% | 1009.6 hPa | 3.05 mm | - | 23 W/m² | - |
| 1778022728 | 13.33° C | 98% | 1009.6 hPa | 3.05 mm | - | 16 W/m² | - |
* Rain latest hour (hover to see other rain measurements)
** Current wind speed in m/s (hover to see current wind gust speed)